www.pogodaiklimat.ru

Погода и климат >> Архив погоды >> Россия >> Якутия >> Юрты


ПОГОДА в Юртах

  • Прогноз погоды в Юртах
  • Монитор погоды в Юртах
  • Климат города

АРХИВ ПОГОДЫ в Юртах

Время (UTC), дата Ветер
(напр.,м/с)
 
Видим.   Явления Облачность Т
(С)
Тd
(С)
f
(%)
Тe
(С)
Тes
(С)
Комфортность P
(гПа)
Po
(гПа)
Тmin
(С)
Tmax
(С)
R
(мм)
R24
(мм)
S
(см)
03 9.07 Ю 4 50 км ясно +29.6 +11.6 33 +28 +36 жарко 1010.9 946.3
06 9.07 Ю 1 50 км 3/0
[Ci fib]
+33.7 +11.6 26 +34 +42 очень
жарко
1008.2 944.8
09 9.07 Ю 3 50 км 4/1 1000 м
[Sc Ci fib]
+22.7 +10.7 47 +25 +26 комфорт 1006.7 943.2 +35.0
12 9.07 Ю 2 50 км 6/0
[Ci fib]
+22.0 +9.9 46 +24 +24 комфорт 1008.9 943.0
15 9.07 штиль 0 50 км 8/0
[Ci fib]
+16.5 +10.3 67 +16 +16 1010.6 943.4
18 9.07 штиль 0 50 км 10/0
[Cs]
+11.0 +7.7 80 +10 +11 1011.9 943.4
21 9.07 Ю 2 50 км 4/0
[Ci fib]
+17.5 +9.1 58 +18 +21 1009.6 942.6 +11.0
00 10.07 Ю 2 50 км ясно +22.0 +10.6 48 +24 +33 комфорт 1008.0 942.2
03 10.07 Ю 1 50 км ясно +29.0 +10.1 31 +29 +43 жарко 1004.3 940.2
06 10.07 Ю 1 20 км дым 8/3 1000 м
[Sc Ci fib]
+31.7 +8.7 24 +31 +36 жарко 1001.5 938.0
09 10.07 С 1 10 км дым 4/3 1000 м
[Sc Ci fib]
+31.3 +6.5 21 +30 +31 жарко 999.8 936.4 +31.7
12 10.07 штиль 0 10 км дым 10/0
[Ci fib]
+21.0 +12.5 58 +23 +23 комфорт 1001.9 936.4
15 10.07 Ю 2 10 км дым 10/0
[Ci fib]
+17.0 +10.7 66 +17 +17 1003.1 936.5
18 10.07 СЗ 1 20 км дым 10/0
[Ci fib]
+13.2 +9.3 77 +13 +14 1004.7 937.1
21 10.07 З 1 20 км дым 6/0
[Ci fib]
+14.2 +10.4 78 +15 +18 1003.9 936.7 +11.3
00 11.07 штиль 0 20 км дым ясно +21.0 +11.3 54 +23 +36 комфорт 1001.3 935.7
03 11.07 штиль 0 20 км дым 3/0
[Ci fib]
+27.5 +12.0 38 +29 +44 жарко 998.6 934.6
06 11.07 штиль 0 20 км дым 3/0
[Ci fib]
+29.8 +10.6 30 +30 +40 жарко 996.1 932.6
09 11.07 Ю 1 20 км гроза без осадков 10/10 600 м
[Cb cap]
+24.0 +11.0 44 +25 +25 комфорт 998.3 933.5 +29.8
12 11.07 штиль 0 20 км дым {гроза} 9/6 600 м
[Cb cap Ac trans]
+19.1 +14.8 76 +20 +20 1000.0 934.1
15 11.07 штиль 0 20 км дым 8/0
[Ac trans]
+13.5 +12.6 94 +13 +13 1002.3 935.1
18 11.07 штиль 0 50 км 10/0
[Ac As]
+11.5 +10.5 94 +11 +11 1002.6 934.8
21 11.07 штиль 0 20 км слабый дождь 10/0
[As op]
+12.0 +10.9 93 +11 +12 1002.6 934.9 +11.5 0.3
00 12.07 штиль 0 50 км {дождь} 6/0
[Ac As]
+18.5 +15.3 82 +19 +27 1000.9 934.9
03 12.07 штиль 0 20 км дым 10/0
[Ci fib]
+25.8 +12.3 43 +27 +40 жарко 998.4 933.8
06 12.07 Ю 1 20 км дым 10/3 600 м
[Sc As trans]
+24.5 +10.5 41 +26 +28 жарко 995.3 931.7
09 12.07 Ю 1 20 км дым 10/0
[Cs]
+24.0 +11.0 44 +25 +27 комфорт 997.5 932.7 +25.0 0.0
12 12.07 Ю 2 50 км 8/8 1000 м
[Cb cap]
+19.5 +9.6 53 +21 +21 комфорт 997.5 931.8
15 12.07 Ю 2 50 км 8/8 1000 м
[Cb cap]
+19.5 +9.6 53 +21 +21 комфорт 997.7 931.9
18 12.07 Ю 3 50 км 10/8 1000 м
[Cb cap Ci fib]
+17.0 +10.7 66 +17 +17 998.3 932.0
21 12.07 В 3 50 км 10/0
[As op]
+16.3 +9.4 64 +16 +16 999.6 933.0 +16.3
00 13.07 Ю 1 50 км {дождь} 10/0
[As op]
+15.0 +12.5 85 +16 +18 999.8 933.1
03 13.07 Ю 1 50 км {дождь} 10/0
[Ac As]
+17.5 +12.3 72 +19 +23 1000.4 934.1
06 13.07 штиль 0 50 км {дождь} 10/0
[Ac As]
+16.0 +14.0 88 1000.7 934.3
09 13.07 штиль 0 50 км 10/3 1000 м
[Sc Ci fib]
+19.5 +15.5 78 +21 +23 комфорт 999.9 934.2 +19.5 0.1
12 13.07 штиль 0 50 км 10/0
[Ac As]
+15.5 +14.6 94 +15 +15 1000.8 934.1
15 13.07 штиль 0 50 км 10/0
[Ac As]
+13.5 +12.6 94 +13 +13 1001.3 934.3
18 13.07 штиль 0 50 км 10/0
[Ac As]
+14.0 +13.1 94 +14 +14 1001.9 934.8
21 13.07 штиль 0 50 км 10/0
[Ac trans Ci fib]
+14.0 +13.1 94 +14 +16 1002.4 935.3 +13.5
00 14.07 штиль 0 50 км 10/0
[Cs]
+19.1 +14.1 73 +20 +30 1002.3 936.3
03 14.07 штиль 0 50 км 10/6 600 м
[Cb cap As trans]
+22.0 +14.6 63 +25 +28 комфорт 1000.5 935.3
06 14.07 ЮВ 1 20 км дым 10/10 600 м
[Cb cap]
+22.0 +14.6 63 +25 +25 комфорт 1000.4 935.2
09 14.07 штиль 0 20 км дым 10/10 600 м
[Cb cap]
+22.0 +13.8 60 +25 +25 комфорт 1001.0 935.7 +22.0
12 14.07 штиль 0 10 км слабый ливневой дождь 10/10 600 м
[Cb cap]
+18.5 +14.4 77 +19 +19 1002.9 936.7
15 14.07 СВ 1 10 км слабый дождь {ливн. осадки} 10/0
[As op]
+14.1 +13.9 99 +14 +14 1005.6 935.8
18 14.07 штиль 0 10 км слабый дождь {ливн. осадки} 10/0
[As op]
+13.8 +13.6 99 +13 +13 1007.1 938.6
21 14.07 штиль 0 10 км слабый дождь 10/0
[As op]
+13.5 +13.1 97 +13 +14 1006.3 938.8 +13.5 2
00 15.07 штиль 0 10 км слабый дождь 10/0
[As op]
+16.3 +15.8 97 +16 +19 1006.1 939.3
03 15.07 штиль 0 20 км слабый дождь 10/3 600 м
[Sc As op]
+17.5 +16.5 94 +17 +20 1005.7 939.3
06 15.07 штиль 0 20 км слабый дождь 10/3 1000 м
[Sc As op]
+17.5 +15.5 88 +17 +19 1006.0 939.4
09 15.07 штиль 0 50 км {дождь} 10/4 1000 м
[Sc Ac As]
+18.3 +17.0 92 +19 +19 1005.6 939.3 +18.3 0.9
12 15.07 штиль 0 50 км {дождь} 9/9 1000 м
[Sc]
+16.5 +15.6 94 +16 +16 1006.1 939.3
15 15.07 штиль 0 500 м переохл. туман ?/? +13.5 +12.6 94 +13 +13 1006.9 939.4
18 15.07 В 2 50 км {туман} 10/10 1000 м
[Sc]
+15.1 +14.0 93 +15 +15 1006.7 939.5
21 15.07 В 2 50 км 10/10 1000 м
[Sc]
+15.1 +14.0 93 +15 +15 1006.7 939.5 +13.5
00 16.07 штиль 0 50 км {ливн. осадки} 10/10 600 м
[Cb cap]
+17.1 +13.8 81 +17 +17 1006.2 939.5

 

Местоположение метеостанции Юрты (Якутия, Россия): широта 64.05 долгота 141.80 высота над уровнем моря 590 м.

В архиве по умолчанию представлена погода в Юртах за последнюю неделю. Архивные данные за месяц целиком и за предыдущие месяцы, начиная с января 2011 года, Вы можете получить, выбрав интересующий диапазон дат из раскрывающегося списка и нажав кнопку "Ввод!".


*Определитесь, кто Вы:
робот инопланетянин человек

Внимание! Время в таблицах - всемирное. Для получения местного времени необходимо прибавить поправку, которая в Юртах равна 10 ч.

Смотрите также архив погоды в соседних городах и на ближайших метеорологических станциях:

Погода в Агаякане (Якутия, Россия) (80 км)
Погода в Усть-Нере (Якутия, Россия) (82 км)
Погода в Оймяконе (Якутия, Россия) (110 км)
Погода в Восточной (Якутия, Россия) (142 км)
Погода в Делянкире (Якутия, Россия) (187 км)
Погода в Усть-Моме (Якутия, Россия) (275 км)
Погода в Теплом Ключе (Якутия, Россия) (286 км)
Погода в Томпо (Якутия, Россия) (293 км)
Погода в Иэме (Якутия, Россия) (317 км)
Погода в Сусумане (Магаданская область, Россия) (344 км)

Пояснения к столбцам:

Ветер - указаны скорость ветра в м/с - средняя за 10 мин, порывы в срок и между сроками (в фигурных скобках) и направление, откуда дует ветер: С - северный, СВ - северо-восточный, В - восточный, ЮВ - юго-восточный, Ю - южный, ЮЗ - юго-западный, З - западный, СЗ - северо-западный.
Видимость - горизонтальная дальность видимости в метрах или километрах. При видимости от 1 до 10 км при отсутствии осадков обычно наблюдается дымка, при ухудшении видимости до 1 км и менее - туман. В сухую погоду видимость может ухудшаться дымом, пылью или мглою.
Явления - указаны атмосферные явления, наблюдавшиеся в срок или в последний час перед сроком; фигурными скобками обозначены явления, наблюдавшиеся между сроками (за 1-3 часа до срока); квадратными скобками обозначены град или гололедные отложения с указанием их диаметра в мм.
Облачность - указаны через наклонную черту общая и нижняя облачность в баллах и высота нижней границы облаков в метрах; квадратными скобками обозначены формы облаков: Ci - перистые, Cs - перисто-слоистые, Cc - перисто-кучевые, Ac - высококучевые, As - высокослоистые, Sc - слоисто-кучевые, Ns - слоисто-дождевые, Cu - кучевые, Cb - кучево-дождевые. Подробнее классификацию облаков см. в Атласе облаков (PDF).
T - Температура воздуха - температура, измеренная на высоте 2 м над землей.
Td - Температура точки росы - температура, при понижении до которой содержащийся в воздухе водяной пар достигнет насыщения.
f - Относительная влажность воздуха - влажноcть воздуха, измеренная на высоте 2 м над землей.
Te - Эффективная температура - температура, которую ощущает одетый по сезону человек в тени. Характеристика душности погоды. При расчете учитывается влияние влажности воздуха и скорости ветра на теплоощущения человека.
Tes - Эффективная температура на солнце - температура, которую ощущает человек, с поправкой на солнечный нагрев. Характеристика знойности погоды. Зависит от высоты солнца над горизонтом, облачности и скорости ветра. Ночью, в пасмурную погоду, а также при ветре 12 м/с и более поправка равна нулю.
P - Атмосферное давление - приведенное к уровню моря атмосферное давление.
Po - Атмосферное давление - измеренное на уровне метеостанции атмосферное давление.
Tmin - Минимальная температура - минимум температуры воздуха на высоте 2 м над землей.
Tmax - Максимальная температура - максимум температуры воздуха на высоте 2 м над землей.
R - Количество осадков - Количество выпавших осадков за период времени, мм. При наведении курсора мыши на число - период времени, за который выпало указанное количество осадков.
R24 - Количество осадков - Количество выпавших осадков за 24 часа, мм.
S - Снежный покров - Высота снежного покрова, см. При наведении курсора мыши на число - состояние снежного покрова и степень покрытия местности в баллах.